LGX37B LIPZ-LIRA

Flight info

Callsign LGX37B
Flight time 0h 41m
Altitude 32000
Route CHI DCT PIDEP DCT DIPVO DCT NIKMA DCT GITOD
Aircraft B38M/M-SDE1FGHILORVWXY/HB1

Departure

Time 2026-05-06 08:07
Airport Venice Marco Polo Airport (LIPZ)

Arrival

Time 2026-05-06 08:49
Airport Ciampino–G. B. Pastine International Airport (LIRA)
Time Latitude Longitude Altitude Speed Heading
2026-05-06 07:59 45.50365 12.34172 15 ft 0 kts 290°
2026-05-06 08:02 45.50364 12.34178 15 ft 4 kts 289°
2026-05-06 08:02 45.50355 12.34215 15 ft 4 kts 286°
2026-05-06 08:02 45.50348 12.34252 15 ft 4 kts 282°
2026-05-06 08:03 45.50343 12.34290 15 ft 4 kts 275°
2026-05-06 08:03 45.50342 12.34315 15 ft 4 kts 264°
2026-05-06 08:03 45.50349 12.34346 15 ft 4 kts 209°
2026-05-06 08:03 45.50355 12.34351 15 ft 0 kts 176°
2026-05-06 08:05 45.50339 12.34352 15 ft 10 kts 176°
2026-05-06 08:05 45.50218 12.34363 16 ft 25 kts 176°
2026-05-06 08:06 45.50020 12.34204 13 ft 42 kts 221°
2026-05-06 08:06 45.49769 12.33884 14 ft 54 kts 222°
2026-05-06 08:06 45.49539 12.33726 15 ft 21 kts 131°
2026-05-06 08:06 45.49514 12.33899 14 ft 30 kts 46°
2026-05-06 08:07 45.49849 12.34332 12 ft 101 kts 44°
2026-05-06 08:07 45.50517 12.35213 89 ft 153 kts 43°
2026-05-06 08:07 45.51320 12.36293 738 ft 165 kts 44°
2026-05-06 08:07 45.52170 12.37492 1472 ft 180 kts 49°
2026-05-06 08:08 45.52640 12.39176 2161 ft 193 kts 93°
2026-05-06 08:08 45.52094 12.40926 3022 ft 203 kts 137°
2026-05-06 08:08 45.50772 12.41708 3869 ft 218 kts 178°
2026-05-06 08:08 45.49224 12.41355 4699 ft 234 kts 193°
2026-05-06 08:09 45.47574 12.40819 5487 ft 252 kts 192°
2026-05-06 08:09 45.45798 12.40281 6312 ft 267 kts 192°
2026-05-06 08:09 45.43954 12.39718 7332 ft 274 kts 192°
2026-05-06 08:09 45.42079 12.39132 8371 ft 279 kts 193°
2026-05-06 08:10 45.40169 12.38526 9388 ft 283 kts 193°
2026-05-06 08:10 45.38220 12.37907 10320 ft 292 kts 193°
2026-05-06 08:10 45.36174 12.37260 10892 ft 310 kts 193°
2026-05-06 08:10 45.34010 12.36576 11437 ft 327 kts 193°
2026-05-06 08:11 45.31746 12.35864 11910 ft 345 kts 193°
2026-05-06 08:11 45.29359 12.35114 12584 ft 355 kts 193°
2026-05-06 08:11 45.26930 12.34351 13416 ft 360 kts 193°
2026-05-06 08:11 45.24466 12.33576 14237 ft 365 kts 193°
2026-05-06 08:12 45.21970 12.32793 15029 ft 369 kts 193°
2026-05-06 08:12 45.19448 12.32003 15780 ft 373 kts 193°
2026-05-06 08:12 45.16892 12.31204 16503 ft 378 kts 193°
2026-05-06 08:12 45.14312 12.30396 17214 ft 382 kts 193°
2026-05-06 08:13 45.11705 12.29582 17887 ft 386 kts 193°
2026-05-06 08:13 45.09071 12.28760 18544 ft 390 kts 193°
2026-05-06 08:13 45.06387 12.28120 19172 ft 394 kts 185°
2026-05-06 08:13 45.03634 12.27945 19791 ft 398 kts 184°
2026-05-06 08:14 45.00853 12.27802 20384 ft 401 kts 184°
2026-05-06 08:14 44.98048 12.27670 20950 ft 405 kts 183°
2026-05-06 08:14 44.95224 12.27532 21505 ft 408 kts 184°
2026-05-06 08:14 44.92377 12.27384 22049 ft 411 kts 184°
2026-05-06 08:15 44.89536 12.27232 22581 ft 414 kts 184°
2026-05-06 08:15 44.86651 12.27079 23124 ft 416 kts 184°
2026-05-06 08:15 44.83746 12.26928 23632 ft 419 kts 184°
2026-05-06 08:15 44.80815 12.26778 24127 ft 423 kts 184°
2026-05-06 08:16 44.77856 12.26627 24610 ft 426 kts 184°
2026-05-06 08:16 44.74880 12.26474 25091 ft 429 kts 184°
2026-05-06 08:16 44.71890 12.26320 25549 ft 431 kts 184°
2026-05-06 08:16 44.68881 12.26164 25987 ft 434 kts 184°
2026-05-06 08:17 44.65846 12.26061 26399 ft 437 kts 182°
2026-05-06 08:17 44.62833 12.26117 26813 ft 441 kts 180°
2026-05-06 08:17 44.59749 12.26284 27203 ft 444 kts 180°
2026-05-06 08:17 44.56654 12.26451 27606 ft 446 kts 180°
2026-05-06 08:18 44.53535 12.26556 27981 ft 448 kts 181°
2026-05-06 08:18 44.50411 12.26610 28343 ft 450 kts 182°
2026-05-06 08:18 44.47267 12.26658 28691 ft 452 kts 181°
2026-05-06 08:18 44.44111 12.26731 29023 ft 455 kts 181°
2026-05-06 08:19 44.40939 12.26828 29350 ft 457 kts 181°
2026-05-06 08:19 44.37747 12.26930 29678 ft 459 kts 181°
2026-05-06 08:19 44.34564 12.27024 30140 ft 457 kts 181°
2026-05-06 08:19 44.31386 12.27106 30577 ft 455 kts 182°
2026-05-06 08:20 44.28221 12.27185 31007 ft 454 kts 182°
2026-05-06 08:20 44.25102 12.27264 31422 ft 453 kts 182°
2026-05-06 08:20 44.21954 12.27348 31824 ft 452 kts 182°
2026-05-06 08:20 44.18789 12.27435 31923 ft 456 kts 182°
2026-05-06 08:21 44.12434 12.27608 31947 ft 457 kts 182°
2026-05-06 08:21 44.06090 12.27779 31949 ft 453 kts 182°
2026-05-06 08:22 43.99805 12.27944 31950 ft 451 kts 182°
2026-05-06 08:22 43.93526 12.28112 31947 ft 450 kts 182°
2026-05-06 08:23 43.87299 12.28277 31948 ft 451 kts 182°
2026-05-06 08:23 43.81015 12.28442 31954 ft 452 kts 182°
2026-05-06 08:24 43.74704 12.28609 31959 ft 456 kts 182°
2026-05-06 08:24 43.68337 12.28778 31960 ft 457 kts 182°
2026-05-06 08:25 43.61982 12.28946 31967 ft 457 kts 182°
2026-05-06 08:25 43.55613 12.29112 31972 ft 457 kts 182°
2026-05-06 08:26 43.49287 12.29278 31983 ft 457 kts 182°
2026-05-06 08:26 43.42916 12.29444 31984 ft 458 kts 181°
2026-05-06 08:27 43.36540 12.29611 31991 ft 458 kts 181°
2026-05-06 08:27 43.30168 12.29779 31990 ft 458 kts 181°
2026-05-06 08:28 43.23781 12.29942 32001 ft 459 kts 181°
2026-05-06 08:28 43.17396 12.30107 32005 ft 458 kts 181°
2026-05-06 08:29 43.11047 12.30275 32011 ft 454 kts 181°
2026-05-06 08:29 43.04774 12.30435 32010 ft 453 kts 181°
2026-05-06 08:30 43.01612 12.30514 31003 ft 456 kts 181°
2026-05-06 08:30 42.98472 12.30597 29921 ft 446 kts 181°
2026-05-06 08:30 42.95410 12.30680 28850 ft 435 kts 181°
2026-05-06 08:30 42.92419 12.30760 27797 ft 423 kts 181°
2026-05-06 08:31 42.89510 12.30834 26762 ft 413 kts 181°
2026-05-06 08:31 42.86670 12.30904 25751 ft 404 kts 181°
2026-05-06 08:31 42.83890 12.30973 24746 ft 396 kts 181°
2026-05-06 08:31 42.81161 12.31043 23757 ft 388 kts 181°
2026-05-06 08:32 42.78492 12.31402 22761 ft 383 kts 173°
2026-05-06 08:32 42.75881 12.31962 21771 ft 377 kts 173°
2026-05-06 08:32 42.73314 12.32520 20787 ft 370 kts 173°
2026-05-06 08:32 42.70793 12.33070 19820 ft 364 kts 173°
2026-05-06 08:33 42.68310 12.33606 18853 ft 358 kts 173°
2026-05-06 08:33 42.65876 12.34131 17906 ft 351 kts 173°
2026-05-06 08:33 42.63485 12.34646 16959 ft 345 kts 173°
2026-05-06 08:33 42.61134 12.35150 16036 ft 339 kts 173°
2026-05-06 08:34 42.58820 12.35648 15113 ft 333 kts 173°
2026-05-06 08:34 42.54341 12.36610 13324 ft 323 kts 173°
2026-05-06 08:34 42.52132 12.37085 12435 ft 320 kts 172°
2026-05-06 08:35 42.49946 12.37554 11573 ft 316 kts 172°
2026-05-06 08:35 42.47769 12.38019 11218 ft 323 kts 172°
2026-05-06 08:35 42.45486 12.38505 10881 ft 334 kts 172°
2026-05-06 08:35 42.43254 12.38984 10641 ft 315 kts 172°
2026-05-06 08:36 42.41157 12.39436 10495 ft 297 kts 172°
2026-05-06 08:36 42.39165 12.39863 10354 ft 283 kts 172°
2026-05-06 08:36 42.37227 12.40276 10239 ft 280 kts 172°
2026-05-06 08:36 42.35315 12.40682 10115 ft 277 kts 172°
2026-05-06 08:37 42.33411 12.41087 9993 ft 275 kts 172°
2026-05-06 08:37 42.31486 12.41498 9642 ft 294 kts 172°
2026-05-06 08:37 42.29329 12.41955 8927 ft 329 kts 172°
2026-05-06 08:37 42.27048 12.42439 8206 ft 330 kts 171°
2026-05-06 08:38 42.24797 12.42925 7484 ft 322 kts 171°
2026-05-06 08:38 42.22650 12.43383 6767 ft 313 kts 171°
2026-05-06 08:38 42.20518 12.43834 6061 ft 308 kts 171°
2026-05-06 08:38 42.18417 12.44278 5393 ft 303 kts 171°
2026-05-06 08:39 42.16345 12.44716 4782 ft 300 kts 171°
2026-05-06 08:39 42.14292 12.45153 4159 ft 297 kts 171°
2026-05-06 08:39 42.12252 12.45586 3536 ft 297 kts 171°
2026-05-06 08:39 42.10219 12.46016 3095 ft 295 kts 171°
2026-05-06 08:40 42.08184 12.46445 3036 ft 294 kts 171°
2026-05-06 08:40 42.06215 12.46862 3015 ft 276 kts 171°
2026-05-06 08:40 42.04403 12.47245 3001 ft 252 kts 171°
2026-05-06 08:40 42.02723 12.47600 3013 ft 237 kts 171°
2026-05-06 08:41 42.01137 12.47936 3011 ft 225 kts 171°
2026-05-06 08:41 41.99629 12.48253 3009 ft 220 kts 171°
2026-05-06 08:41 41.98119 12.48571 3005 ft 217 kts 171°
2026-05-06 08:41 41.96658 12.48879 3010 ft 212 kts 171°
2026-05-06 08:42 41.95220 12.49183 3000 ft 208 kts 170°
2026-05-06 08:42 41.93846 12.49830 3016 ft 209 kts 154°
2026-05-06 08:42 41.92542 12.50721 2928 ft 212 kts 152°
2026-05-06 08:42 41.91195 12.51666 2051 ft 220 kts 152°
2026-05-06 08:43 41.89905 12.52550 1724 ft 198 kts 153°
2026-05-06 08:43 41.88718 12.53337 1331 ft 181 kts 153°
2026-05-06 08:43 41.87649 12.54034 1212 ft 171 kts 153°
2026-05-06 08:43 41.86660 12.54755 1112 ft 158 kts 150°
2026-05-06 08:44 41.85731 12.55458 963 ft 148 kts 151°
2026-05-06 08:44 41.84828 12.56111 846 ft 143 kts 152°
2026-05-06 08:44 41.83929 12.56723 740 ft 143 kts 153°
2026-05-06 08:44 41.83043 12.57328 647 ft 139 kts 151°
2026-05-06 08:45 41.83006 12.57355 644 ft 137 kts 151°
2026-05-06 08:45 41.82345 12.57831 575 ft 114 kts 151°
2026-05-06 08:46 41.82236 12.57910 548 ft 110 kts 151°
2026-05-06 08:46 41.82130 12.57986 508 ft 109 kts 151°
2026-05-06 08:49 41.82005 12.58076 405 ft 116 kts 153°
2026-05-06 08:49 41.81868 12.58167 3515 ft 131 kts 155°
2026-05-06 08:50 41.80782 12.58594 3178 ft 173 kts 181°
2026-05-06 08:50 41.79751 12.57937 2617 ft 166 kts 229°
2026-05-06 08:50 41.79413 12.57020 2159 ft 168 kts 258°
2026-05-06 08:50 41.79498 12.55551 1917 ft 150 kts 287°
2026-05-06 08:51 41.79878 12.54324 1809 ft 136 kts 296°
2026-05-06 08:51 41.80314 12.53175 1742 ft 142 kts 296°
2026-05-06 08:51 41.80822 12.51987 1825 ft 152 kts 308°
2026-05-06 08:51 41.81554 12.50962 2031 ft 153 kts 316°
2026-05-06 08:52 41.82516 12.50213 1890 ft 165 kts 339°
2026-05-06 08:52 41.83604 12.49707 1716 ft 172 kts 340°
2026-05-06 08:52 41.84760 12.49226 1516 ft 173 kts 352°
2026-05-06 08:52 41.85860 12.49533 1541 ft 158 kts 31°
2026-05-06 08:53 41.86465 12.50701 1367 ft 153 kts 79°
2026-05-06 08:53 41.86410 12.52132 1133 ft 155 kts 98°
2026-05-06 08:53 41.86219 12.53519 1043 ft 148 kts 101°
2026-05-06 08:53 41.85902 12.54804 951 ft 143 kts 116°
2026-05-06 08:54 41.85297 12.55868 841 ft 145 kts 139°
2026-05-06 08:54 41.84405 12.56504 843 ft 148 kts 159°
2026-05-06 08:54 41.83441 12.57075 790 ft 154 kts 153°
2026-05-06 08:54 41.82510 12.57731 675 ft 142 kts 153°
2026-05-06 08:55 41.81624 12.58321 570 ft 147 kts 153°
2026-05-06 08:55 41.80709 12.58949 428 ft 142 kts 152°
2026-05-06 08:55 41.79916 12.59503 410 ft 118 kts 153°
2026-05-06 08:55 41.79355 12.59888 414 ft 58 kts 153°
2026-05-06 08:56 41.79247 12.59768 404 ft 28 kts 314°
2026-05-06 08:56 41.79409 12.59644 403 ft 17 kts 332°
2026-05-06 08:56 41.79416 12.59639 405 ft 0 kts 332°